Terminal Aerodrome Forecast
Issued by NWS Omaha/Valley, NE

Home | Current Version | Previous Version | Text Only | Print | Product List | Glossary On
Versions: 1 2 3 4 5 6 7 8 9 10 11 12 13 14 15 16 17 18 19 20 21 22
000
FTUS43 KOAX 232331
TAFOMA
TAF
KOMA 232331Z 2400/2424 32018G30KT P6SM VCSH SCT080
     FM240400 32016KT P6SM SCT080
     FM240700 32015G25KT P6SM BKN090
     FM241400 33024G33KT P6SM FEW200=

USA.gov is the U.S. government's official web portal to all federal, state and local government web resources and services.